Regional Weather Roundup
Issued by NWS

Home | Current Version | Previous Version | Graphics & Text | Print | Product List | Glossary On
Versions: 1 2 3 4 5 6 7 8 9 10 11 12 13 14 15 16 17 18 19 20 21 22 23 24 25 26 27 28 29 30 31 32 33 34 35 36 37 38 39 40 41 42 43 44 45 46 47 48 49 50
000
ASUS43 KOAX 210302
RWRNE

WEATHER ROUNDUP FOR NEBRASKA
NATIONAL WEATHER SERVICE OMAHA NE
1000 PM CDT MON APR 20 2015

NOTES: SATELLITE DATA IS BEING USED TO AUGMENT CLOUD COVER ABOVE
       12000 FEET.
       "FAIR" INDICATES FEW OR NO CLOUDS BELOW 12,000 FEET WITH NO
       SIGNIFICANT WEATHER AND/OR OBSTRUCTIONS TO VISIBILITY.

  * THESE STATIONS DO NOT REPORT WEATHER SUCH AS RAIN...SNOW OR FOG.

NEZ001>004-019>022-054>056-210400-
NEBRASKA PANHANDLE

CITY           SKY/WX    TMP DP  RH WIND       PRES   REMARKS
SCOTTSBLUFF    CLEAR     43  26  51 CALM      29.88R
ALLIANCE       CLEAR     41  25  53 NW8       29.86R
CHADRON        CLEAR     39  24  55 NE6       29.87R WCI  35
SIDNEY         PTCLDY    36  28  73 NW3       29.90R
$$

NEZ057>060-069>072-079>082-210400-
SOUTHWEST NEBRASKA

CITY           SKY/WX    TMP DP  RH WIND       PRES   REMARKS
NORTH PLATTE   CLEAR     42  26  53 CALM      29.86R
IMPERIAL       CLEAR     41  28  60 W7        29.89R
MCCOOK         CLEAR     46  29  51 MISG      29.88R
$$

NEZ005>010-023>029-035>040-094-210400-
NORTH CENTRAL NEBRASKA

CITY           SKY/WX    TMP DP  RH WIND       PRES   REMARKS
VALENTINE      CLOUDY    45  23  42 NW6       29.85R
AINSWORTH      CLOUDY    46  24  41 NW6       29.84R
BROKEN BOW     CLEAR     37  26  64 N6        29.85R WCI  32
ORD            MOCLDY    45  25  45 W8        29.83R
$$

NEZ041-046>049-061>064-073>077-083>087-210400-
SOUTH CENTRAL NEBRASKA

CITY           SKY/WX    TMP DP  RH WIND       PRES   REMARKS
GRAND ISLAND   PTCLDY    43  27  53 NW8       29.85R
HASTINGS       FAIR      45  30  55 W6        29.86R
KEARNEY *      CLEAR     46  27  46 W5        29.87R
YORK           CLEAR     41  30  65 W7        29.84R
$$

NEZ011>018-030>034-042>045-210400-
NORTHEAST NEBRASKA

CITY           SKY/WX    TMP DP  RH WIND       PRES   REMARKS
NORFOLK        CLEAR     43  16  33 W7        29.80R
COLUMBUS *     PTCLDY    45  21  39 W6        29.83R
TEKAMAH        CLEAR     44  23  43 W9        29.78R
$$

NEZ050>053-065>068-078-088>093-210400-
SOUTHEAST NEBRASKA

CITY           SKY/WX    TMP DP  RH WIND       PRES   REMARKS
LINCOLN        PTCLDY    49  24  37 W6        29.84R
OMAHA EPPLEY   CLEAR     50  16  25 W10       29.79R
FALLS CITY     CLEAR     47  27  45 W9        29.82R
NEBRASKA CITY  CLEAR     45  20  36 W9        29.82R
PLATTSMOUTH    CLEAR     45  22  41 W5        29.80R
$$

NEZ044-045-051>053-067-210400-
OMAHA AREA

CITY           SKY/WX    TMP DP  RH WIND       PRES   REMARKS
OMAHA EPPLEY   CLEAR     50  16  25 W10       29.79R
OFFUTT AFB     CLEAR     48  21  34 W5        29.79R
PLATTSMOUTH    CLEAR     45  22  41 W5        29.80R
$$



USA.gov is the U.S. government's official web portal to all federal, state and local government web resources and services.